Theta_e
295 294 294 294 293 293 292 292 292 292 292 291 291 291 290 290 290 290 290 289 289 289 289 289 289 289 289 289 289 289 289 289 289 289 289 288 288 288 289 288 288 288
294 293 293 292 292 292 292 292 291 291 291 291 291 291 291 291 291 290 290 290 290 290 289 289 289 289 289 288 288 288 288 288 288 288 288 288 288 288 288 288 288 288
292 292 292 292 291 291 291 291 291 290 290 290 290 290 290 290 290 290 290 290 290 290 290 289 289 289 288 288 288 288 288 288 288 288 288 288 288 288 288 288 288 288
291 291 291 290 290 290 290 290 290 290 290 289 289 289 289 289 289 289 289 289 289 289 289 289 289 288 288 288 288 288 288 288 288 288 288 288 288 288 288 288 288 287
290 290 290 290 290 290 290 290 289 289 289 289 289 289 288 288 288 288 288 288 287 287 287 287 287 287 287 287 287 287 287 288 287 288 288 288 288 288 287 287 287 287
290 290 290 290 290 290 289 289 289 289 288 288 288 288 288 287 287 287 287 287 287 286 286 286 286 287 287 287 287 287 287 287 287 287 287 287 287 287 287 287 287 287
290 290 290 289 289 289 289 288 288 288 288 288 287 287 287 287 287 287 286 286 286 286 286 287 286 287 287 287 287 287 287 287 287 287 287 287 287 287 287 287 287 287
290 289 289 289 289 289 288 288 288 288 288 287 287 287 287 287 286 286 286 286 286 286 286 286 286 286 286 287 287 287 287 287 287 287 287 287 287 287 287 287 287 287
289 289 289 289 289 289 288 288 288 288 288 287 287 287 287 286 286 286 286 286 286 286 286 286 286 286 286 286 286 286 286 286 286 286 286 286 286 286 287 286 286 287
290 289 289 289 289 289 288 288 288 288 287 287 287 287 287 286 286 286 285 286 286 286 286 285 285 285 285 286 286 286 286 286 286 286 286 286 286 286 286 286 286 286
289 289 289 289 289 288 288 288 288 287 287 287 287 286 286 286 285 285 285 285 285 285 285 285 285 285 285 285 285 285 285 285 285 285 285 285 285 285 285 285 285 285
289 289 289 288 288 288 288 288 287 287 287 287 286 286 286 286 285 285 285 285 285 285 285 285 285 285 285 285 285 285 285 285 285 285 285 285 285 285 285 285 284 284
289 289 289 288 288 288 288 288 287 287 287 287 286 286 286 285 285 285 285 285 285 284 284 285 285 285 284 284 284 284 284 284 284 284 284 284 284 284 284 284 283 282
289 289 289 288 288 288 288 288 287 287 287 286 286 285 285 284 284 284 284 284 284 284 284 285 284 284 284 284 284 284 284 284 284 284 284 284 284 283 283 283 282 281
289 289 288 288 288 288 288 287 287 287 287 286 285 285 284 284 284 284 284 284 284 284 284 284 284 284 284 284 284 284 284 283 283 283 283 283 283 282 282 281 281 280
289 288 288 288 288 288 287 287 287 287 286 285 285 284 284 284 284 284 284 284 284 284 284 284 284 284 284 283 283 283 283 283 282 282 282 281 281 281 280 279 279 279
288 288 288 288 288 287 287 287 286 286 285 285 285 284 284 283 283 283 284 284 284 284 284 284 284 284 283 283 283 282 282 281 281 281 280 280 279 278 278 278 277 277
288 288 288 288 288 287 287 286 286 285 285 284 284 283 283 283 283 283 284 284 284 284 284 284 284 283 283 283 283 282 281 280 280 279 279 278 277 277 276 276 276 276
288 288 288 288 287 287 287 286 285 285 284 284 284 283 283 283 283 283 284 284 284 284 284 284 283 283 283 283 282 281 280 279 279 278 278 277 276 276 276 275 275 275
288 288 288 288 287 287 286 285 285 284 284 283 283 283 283 283 283 283 283 284 283 283 283 284 283 283 283 282 282 281 279 278 278 278 277 277 276 276 275 275 275 275
288 288 288 287 287 287 286 285 284 284 283 283 283 283 283 283 283 283 283 283 283 283 283 283 283 282 282 282 281 280 279 278 278 277 277 276 276 275 275 275 274 274
287 287 287 287 287 286 285 284 284 283 283 282 282 282 283 283 283 283 283 283 283 283 283 283 282 282 281 281 280 279 278 278 277 277 276 276 275 275 275 274 274 273
287 287 287 287 286 286 285 284 283 283 282 282 282 282 283 283 283 283 283 283 283 282 282 282 282 281 281 280 279 278 277 277 277 276 276 275 275 275 274 273 272 272
287 287 287 287 286 285 284 283 283 282 282 282 282 282 282 283 283 283 282 282 282 282 281 281 282 281 280 279 278 277 277 277 276 276 276 275 275 274 274 273 272 272
287 287 287 286 286 285 283 283 282 282 282 282 282 282 282 282 282 282 282 282 282 281 281 280 281 280 279 278 278 277 277 277 276 276 276 276 275 273 273 272 272 272
287 287 286 286 285 284 283 282 282 282 281 281 282 282 282 282 282 282 282 282 281 281 280 280 280 280 279 278 277 277 277 277 276 276 276 275 274 272 272 271 271 271
Wind_Speed
7 7 8 8 9 10 11 12 13 14 15 16 17 18 19 20 20 20 20 20 20 20 19 20 20 21 21 22 22 22 23 23 24 25 25 25 25 25 24 24 24 25
6 6 7 8 8 9 10 11 12 13 14 15 16 17 18 19 20 21 22 22 23 23 23 23 23 23 23 23 23 24 24 24 25 26 26 27 27 28 28 28 28 27
4 4 5 6 7 9 10 11 12 13 14 15 15 16 17 18 19 20 22 23 24 25 26 27 28 28 28 28 27 27 27 27 28 28 28 29 29 30 30 31 31 30
3 4 5 7 8 9 10 11 12 13 14 15 16 16 17 18 19 19 20 21 22 23 24 26 28 29 31 32 33 33 33 33 33 33 33 32 32 33 33 33 34 33
4 5 6 7 9 10 11 12 13 14 15 16 17 17 18 18 18 18 18 19 19 20 21 23 24 26 28 30 32 34 35 36 37 38 39 39 38 38 38 37 38 37
5 7 8 9 10 11 12 13 14 15 15 16 17 17 18 18 18 18 19 20 20 21 22 23 24 26 28 29 31 33 34 36 37 38 40 42 42 43 43 43 43 42
7 8 9 10 11 12 13 14 14 15 16 16 17 17 18 19 19 20 22 23 23 24 26 27 28 30 31 32 34 35 36 37 38 39 40 42 43 44 45 45 46 46
9 10 11 12 13 14 16 16 17 18 19 19 19 19 20 21 22 23 24 26 27 28 30 31 33 34 35 37 37 38 38 39 39 40 41 42 43 44 45 45 46 47
11 12 14 16 17 18 19 19 20 21 22 22 22 22 23 24 25 26 28 29 30 32 34 35 36 38 38 39 40 40 41 41 42 42 42 42 42 43 43 44 46 47
13 15 16 18 19 20 20 21 22 23 23 24 24 24 25 26 27 29 30 32 33 35 37 38 39 40 40 40 40 41 42 43 43 44 44 44 44 44 44 43 44 46
15 16 17 19 20 21 22 22 23 24 25 25 25 25 26 27 28 30 31 33 35 37 38 39 40 40 40 41 41 41 41 42 43 44 44 45 46 47 47 47 47 47
16 18 19 21 22 23 24 25 26 26 27 27 27 27 27 28 29 31 33 35 36 38 39 39 40 40 40 40 40 40 41 42 43 44 45 47 48 48 49 49 49 49
18 20 22 23 24 25 26 27 29 29 30 29 29 28 29 30 32 33 35 36 38 39 39 39 39 39 39 39 40 41 42 44 45 46 47 47 48 48 48 49 48 48
21 22 23 25 26 27 29 30 31 32 32 31 30 30 31 33 34 35 36 37 38 39 39 39 39 39 39 39 41 42 44 45 46 47 48 48 48 48 47 47 47 46
22 23 24 26 28 29 31 32 33 33 33 31 31 31 33 35 36 37 38 38 39 39 39 39 38 38 39 40 42 43 45 46 47 47 48 48 48 48 47 47 46 44
21 23 25 27 28 30 31 32 33 33 32 31 31 33 35 36 36 37 38 39 39 39 39 38 38 38 39 41 42 44 45 46 47 47 47 48 48 48 47 46 45 44
20 23 25 27 28 30 31 32 32 31 31 31 32 34 35 36 37 37 38 38 39 39 39 38 38 39 40 41 42 43 44 45 46 47 46 47 47 47 47 45 44 44
21 23 25 27 28 29 30 31 31 30 30 31 34 35 35 36 36 37 38 38 38 38 38 38 38 39 40 41 42 43 43 43 44 45 45 45 45 45 45 44 44 43
22 24 26 27 28 29 30 30 30 30 31 33 34 35 35 35 36 36 37 37 37 37 37 37 38 39 40 41 42 43 42 42 42 44 44 44 44 43 43 43 42 41
23 25 26 28 29 29 30 30 30 30 32 33 34 34 34 35 35 36 36 36 36 36 37 37 38 39 40 41 42 42 41 41 42 43 43 43 42 42 42 41 40 39
25 26 27 29 29 30 30 30 30 31 32 33 34 34 34 34 35 35 35 35 35 36 37 38 38 39 40 41 42 41 40 40 41 42 42 42 42 41 40 39 38 36
26 27 28 29 30 30 30 30 30 31 32 33 33 33 33 34 34 34 35 35 35 36 37 38 38 38 39 41 41 40 40 40 40 41 41 41 41 40 39 37 35 33
26 27 29 30 30 30 30 30 31 32 32 33 33 33 33 33 34 34 34 35 36 36 38 39 39 38 39 40 40 38 38 38 39 40 40 39 39 38 36 34 32 30
27 28 29 30 30 30 30 30 31 31 32 32 32 33 33 33 33 34 34 34 35 36 37 38 39 39 39 39 38 36 35 37 38 38 39 38 37 35 33 31 30 30
27 28 30 30 31 31 30 30 31 31 32 31 31 32 32 32 33 34 34 35 35 36 37 37 39 39 38 38 37 35 33 34 36 37 38 37 34 33 32 32 33 33
27 29 30 31 31 31 30 30 31 31 31 31 31 31 31 32 32 33 35 35 35 36 36 36 37 38 37 36 35 33 32 32 33 35 35 35 34 34 36 37 37 37
Wind_Direction
22 14 10 7 4 2 1 357 355 353 350 349 348 348 348 348 347 346 346 346 345 344 342 340 339 337 335 334 333 331 331 330 329 328 327 327 325 324 322 320 319 318
7 4 1 356 354 353 349 348 347 343 340 339 337 336 335 333 332 332 332 332 332 332 333 332 332 331 330 328 327 326 325 324 323 323 322 322 322 320 319 318 316 315
341 339 338 336 339 340 340 340 337 335 333 330 328 326 324 323 323 322 321 321 321 321 322 323 324 325 325 325 324 323 323 322 320 319 318 318 318 316 315 314 313 312
318 326 332 335 336 335 334 332 329 327 326 325 324 323 322 322 320 319 319 319 319 319 319 319 320 321 321 321 322 322 322 321 321 319 318 316 315 313 312 310 308 307
326 333 337 334 332 330 327 324 322 322 323 322 322 322 321 321 320 319 318 317 317 318 318 318 318 318 318 318 318 319 319 319 319 318 317 316 315 312 310 308 306 304
324 326 327 325 324 324 323 322 323 322 322 321 320 319 319 319 319 319 318 318 319 319 318 318 318 317 317 316 316 316 315 315 315 314 314 313 313 312 310 309 307 305
312 315 317 320 323 325 325 327 327 325 324 322 320 319 318 317 318 319 319 319 319 320 320 319 319 318 318 317 315 314 314 313 312 311 310 310 309 309 308 307 307 305
311 315 319 323 326 328 328 328 327 327 326 324 323 322 320 321 321 321 321 321 321 321 321 321 320 320 318 317 316 314 313 312 311 310 309 308 307 307 307 307 306 305
322 322 323 324 325 325 325 325 326 326 325 324 323 322 322 322 322 322 322 322 322 322 321 321 320 319 318 317 316 315 314 313 312 311 310 309 308 306 305 305 304 304
321 320 319 320 321 322 323 323 323 324 323 323 321 320 320 320 320 321 321 321 321 321 320 319 319 318 318 317 316 316 315 314 313 313 312 311 309 308 306 304 302 300
314 315 317 319 321 322 322 321 321 321 321 320 318 317 317 317 317 317 318 318 318 318 318 317 317 317 317 317 317 316 315 314 314 313 312 311 310 309 307 305 303 300
313 316 319 320 320 320 320 319 319 319 319 317 316 314 313 314 315 315 316 316 316 316 316 316 317 317 317 317 316 316 315 315 314 313 312 311 310 309 307 306 304 302
315 317 318 318 318 317 317 316 316 316 316 315 313 311 311 312 313 314 315 315 316 316 316 316 317 317 317 317 317 317 317 317 316 315 313 312 310 308 306 305 303 301
312 313 314 314 313 313 312 312 312 312 312 311 310 309 311 312 314 314 315 315 316 316 316 317 317 318 319 319 320 320 320 319 318 316 314 312 310 308 306 304 303 302
305 307 309 309 309 309 308 308 308 308 309 308 308 309 311 312 313 314 315 316 316 316 317 317 318 319 321 322 322 322 321 320 318 317 315 313 311 310 308 307 306 306
301 304 306 306 306 306 305 305 305 306 305 305 307 309 311 312 313 314 315 316 316 317 317 318 319 321 323 324 324 323 322 321 320 318 317 315 314 312 311 311 311 310
300 304 305 305 305 305 304 304 303 303 303 304 307 309 310 312 313 314 315 316 317 317 317 317 319 322 323 323 324 324 323 323 321 320 318 316 315 314 314 313 313 312
297 304 306 305 305 305 304 303 301 300 302 304 307 309 310 312 314 314 316 316 316 317 316 317 320 322 323 323 324 324 324 324 322 319 317 316 315 315 314 313 313 312
296 304 308 307 306 306 304 302 301 301 303 305 307 309 310 312 313 314 315 316 316 316 316 318 321 322 323 323 323 325 326 324 321 318 317 316 315 314 314 313 313 313
296 305 308 308 308 307 304 302 301 301 304 306 308 309 311 312 313 314 315 316 316 316 316 318 321 322 323 324 324 326 326 324 320 318 316 315 315 314 313 313 313 314
297 306 309 309 309 307 304 301 301 302 305 307 308 310 311 312 314 315 315 315 315 316 317 319 322 323 324 324 325 327 327 324 320 318 316 315 315 314 312 312 313 315
299 305 308 309 309 306 303 300 301 303 306 307 308 310 311 313 314 315 315 315 315 317 318 319 322 324 325 325 326 328 327 324 320 317 316 314 313 312 311 312 314 316
299 305 307 308 307 305 301 300 302 304 306 307 308 310 311 312 313 314 314 315 316 318 319 320 323 325 326 326 327 328 326 322 319 316 314 312 311 311 312 313 314 317
299 304 306 307 306 303 300 300 303 305 307 307 308 309 311 312 313 314 314 315 317 319 320 322 324 326 326 326 326 326 324 320 317 314 313 312 312 313 313 313 314 316
300 303 305 306 305 302 300 302 304 306 306 307 307 308 310 312 313 313 313 315 317 319 321 323 324 326 326 325 325 324 321 317 315 313 312 313 314 315 316 317 317 318
299 302 304 305 303 301 301 303 305 306 305 305 306 307 309 311 312 313 313 315 317 319 321 324 324 325 326 324 323 321 319 316 313 312 313 315 318 320 318 317 316 316